www.pogodaiklimat.ru

Погода и климат >> Архив погоды >> ОАЭ >> Abu Dhabi Bateen Airport


ПОГОДА в Abu Dhabi Bateen Airport

  • Прогноз погоды в Abu Dhabi Bateen Airport
  • Монитор погоды в Abu Dhabi Bateen Airport
  • Климат города

АРХИВ ПОГОДЫ в Abu Dhabi Bateen Airport

Время (UTC), дата Ветер
(напр.,м/с)
 
Видим.   Явления Облачность Т
(С)
Тd
(С)
f
(%)
Тe
(С)
Тes
(С)
Комфортность P
(гПа)
Po
(гПа)
Тmin
(С)
Tmax
(С)
R
(мм)
R24
(мм)
S
(см)
18 17.09 В 3 10 км ясно +35.0 +18.9 39 +40 +40 очень
душно
1003.3 1002.9 +43.6
21 17.09 ЮВ 3 10 км ясно +33.3 +17.0 38 +37 +37 очень
душно
1002.4 1002.0
00 18.09 нст 1 10 км ясно +30.9 +12.9 33 +41 +41 опасность
перегрева
1003.2 1002.8
03 18.09 ЮВ 6 10 км ясно +32.4 +10.2 26 +32 +32 жарко 1004.9 1004.5
06 18.09 ЮВ 5 7000 м пыль ясно +36.7 +12.7 24 +37 +43 очень
жарко
1006.3 1005.9 +30.1
09 18.09 Ю 3 10 км ясно +42.2 +8.7 14 +40 +55 опасность
солнечного
удара
1004.6 1004.2
12 18.09 нст 1 10 км ясно +43.8 +7.5 11 +41 +49 опасность
перегрева
1003.1 1002.7
15 18.09 С 3 10 км ясно +35.4 +24.6 54 +48 +48 опасность
перегрева
1003.9 1003.5
21 18.09 ЮВ 2 10 км ясно +33.9 +14.3 31 +35 +35 очень
жарко
1005.2 1004.8
00 19.09 ЮВ 2 10 км ясно +31.6 +15.4 38 +34 +34 душно 1005.7 1005.3
06 19.09 Ю 6 10 км ясно +35.2 +13.2 27 +36 +41 очень
жарко
1008.8 1008.4 +31.2
09 19.09 ЮЗ 4 10 км ясно +39.4 +11.2 19 +39 +52 опасность
солнечного
удара
1006.5 1006.1
12 19.09 Ю 2 10 км ясно +41.3 +8.0 14 +39 +45 очень
жарко
1004.6 1004.2
21 19.09 Ю 2 600 м ясно +33.6 +16.3 36 +36 +36 очень
душно
1004.6 1004.2
00 20.09 ЮВ 2 10 км ясно +31.9 +11.4 28 +32 +32 жарко 1004.7 1004.3
03 20.09 Ю 3 10 км ясно +31.9 +12.0 30 +32 +33 жарко 1005.8 1005.4
06 20.09 нст 2 10 км ясно +38.0 +11.6 21 +37 +49 очень
жарко
1007.1 1006.7 +31.4
15 20.09 С 4 10 км ясно +34.0 +26.2 64 +50 +50 опасность
перегрева
1004.2 1003.8
18 20.09 СВ 3 9000 м мгла ясно +32.4 +27.7 76 +52 +52 опасность
перегрева
1005.4 1005.0 +41.3
00 21.09 СВ 3 9000 м мгла ясно +30.8 +25.1 72 +45 +45 опасность
перегрева
1004.0 1003.6
03 21.09 СВ 2 9000 м мгла 3/0
[Ac trans]
+30.2 +23.0 65 +40 +40 очень
душно
1006.2 1005.8
06 21.09 Ю 3 10 км 3/0
[Ac trans]
+35.7 +11.1 23 +35 +43 очень
жарко
1007.8 1007.4 +29.6
15 21.09 С 4 8000 м мгла ясно +34.0 +27.4 69 +53 +53 опасность
перегрева
1004.9 1004.5
18 21.09 С 4 9000 м мгла ясно +32.5 +27.6 75 +52 +52 опасность
перегрева
1007.0 1006.6 +43.6
00 22.09 нст 1 10 км ясно +31.7 +21.8 56 +40 +40 очень
душно
1005.1 1004.7
03 22.09 нст 1 8000 м мгла ясно +30.3 +26.3 79 +46 +46 опасность
перегрева
1006.4 1006.0
18 22.09 СВ 3 7000 м мгла ясно +32.4 +28.0 78 +53 +53 опасность
перегрева
1007.5 1007.1 +39.0
21 22.09 СЗ 2 8000 м мгла ясно +31.8 +26.3 73 +48 +48 опасность
перегрева
1006.9 1006.5
03 23.09 СВ 3 8000 м мгла ясно +30.8 +26.8 79 +48 +48 опасность
перегрева
1007.6 1007.2
06 23.09 С 2 8000 м мгла ясно +34.4 +24.5 56 +47 +58 опасность
перегрева
1009.0 1008.6 +30.4
09 23.09 С 3 9000 м пыль ясно +39.4 +14.9 24 +40 +56 опасность
солнечного
удара
1007.7 1007.3
12 23.09 СЗ 5 10 км ясно +37.3 +22.5 43 +46 +49 опасность
перегрева
1006.2 1005.8
18 23.09 С 3 10 км ясно +32.7 +28.3 78 +54 +54 опасность
перегрева
1008.0 1007.6 +40.0
21 23.09 нст 1 10 км ясно +31.7 +28.1 81 +52 +52 опасность
перегрева
1007.9 1007.5
00 24.09 В 1 10 км ясно +30.8 +26.4 77 +47 +47 опасность
перегрева
1007.2 1006.8
09 24.09 ЮЗ 3 10 км ясно +40.7 +8.6 15 +39 +53 опасность
солнечного
удара
1007.9 1007.5
15 24.09 С 3 10 км ясно +34.9 +22.2 48 +44 +44 опасность
перегрева
1006.5 1006.1

 

Местоположение метеостанции Abu Dhabi Bateen Airport (ОАЭ): широта 24.43 долгота 54.46 высота над уровнем моря 5 м.

В архиве по умолчанию представлена погода в Abu Dhabi Bateen Airport за последнюю неделю. Архивные данные за месяц целиком и за предыдущие месяцы, начиная с января 2011 года, Вы можете получить, выбрав интересующий диапазон дат из раскрывающегося списка и нажав кнопку "Ввод!".


*Определитесь, кто Вы:
робот инопланетянин человек

Внимание! Время в таблицах - всемирное. Для получения местного времени необходимо прибавить поправку, которая в Abu Dhabi Bateen Airport равна 4 ч.

Смотрите также архив погоды в соседних городах и на ближайших метеорологических станциях:

Погода в Abu Dhabi (ОАЭ) (19 км)
Погода в Dubai Al Maktoum Int Airport (ОАЭ) (88 км)
Погода в Al Ain Int Airport (ОАЭ) (117 км)
Погода в Dubai (ОАЭ) (127 км)
Погода в Buraimi (Оман) (136 км)
Погода в Sharjah (ОАЭ) (146 км)
Погода в Abu Musa Island (Иран) (160 км)
Погода в Sirri Island (Иран) (165 км)
Погода в Qumayra (Оман) (185 км)
Погода в Ras Al Khaimah Int Airport (ОАЭ) (199 км)

Пояснения к столбцам:

Ветер - указаны скорость ветра в м/с - средняя за 10 мин, порывы в срок и между сроками (в фигурных скобках) и направление, откуда дует ветер: С - северный, СВ - северо-восточный, В - восточный, ЮВ - юго-восточный, Ю - южный, ЮЗ - юго-западный, З - западный, СЗ - северо-западный.
Видимость - горизонтальная дальность видимости в метрах или километрах. При видимости от 1 до 10 км при отсутствии осадков обычно наблюдается дымка, при ухудшении видимости до 1 км и менее - туман. В сухую погоду видимость может ухудшаться дымом, пылью или мглою.
Явления - указаны атмосферные явления, наблюдавшиеся в срок или в последний час перед сроком; фигурными скобками обозначены явления, наблюдавшиеся между сроками (за 1-3 часа до срока); квадратными скобками обозначены град или гололедные отложения с указанием их диаметра в мм.
Облачность - указаны через наклонную черту общая и нижняя облачность в баллах и высота нижней границы облаков в метрах; квадратными скобками обозначены формы облаков: Ci - перистые, Cs - перисто-слоистые, Cc - перисто-кучевые, Ac - высококучевые, As - высокослоистые, Sc - слоисто-кучевые, Ns - слоисто-дождевые, Cu - кучевые, Cb - кучево-дождевые. Подробнее классификацию облаков см. в Атласе облаков (PDF).
T - Температура воздуха - температура, измеренная на высоте 2 м над землей.
Td - Температура точки росы - температура, при понижении до которой содержащийся в воздухе водяной пар достигнет насыщения.
f - Относительная влажность воздуха - влажноcть воздуха, измеренная на высоте 2 м над землей.
Te - Эффективная температура - температура, которую ощущает одетый по сезону человек в тени. Характеристика душности погоды. При расчете учитывается влияние влажности воздуха и скорости ветра на теплоощущения человека.
Tes - Эффективная температура на солнце - температура, которую ощущает человек, с поправкой на солнечный нагрев. Характеристика знойности погоды. Зависит от высоты солнца над горизонтом, облачности и скорости ветра. Ночью, в пасмурную погоду, а также при ветре 12 м/с и более поправка равна нулю.
P - Атмосферное давление - приведенное к уровню моря атмосферное давление.
Po - Атмосферное давление - измеренное на уровне метеостанции атмосферное давление.
Tmin - Минимальная температура - минимум температуры воздуха на высоте 2 м над землей.
Tmax - Максимальная температура - максимум температуры воздуха на высоте 2 м над землей.
R - Количество осадков - Количество выпавших осадков за период времени, мм. При наведении курсора мыши на число - период времени, за который выпало указанное количество осадков.
R24 - Количество осадков - Количество выпавших осадков за 24 часа, мм.
S - Снежный покров - Высота снежного покрова, см. При наведении курсора мыши на число - состояние снежного покрова и степень покрытия местности в баллах.